Location: Livorno
(43.5500°N, 10.3170°E)
Time: 19:47:38
(UTC+02:00)

ISS - Pass Details

Date: 18 May 2026
Orbit: 415 x 423 km, 51.6° (Epoch: 10 June)

Event Time Altitude Azimuth Distance (km) Brightness Sun altitude
Rises 22:26:10 0° 302° (WNW) 2,357 1.6 -15.8°
Reaches altitude 10° 22:28:28 10° 316° (NW) 1,493 0.4 -16.1°
Maximum altitude 22:31:23 27° 16° (NNE) 843 -1.9 -16.4°
Enters shadow 22:33:39 14° 69° (ENE) 1,277 -1.5 -16.7°
